Regional Weather Roundup
Issued by NWS State College, PA

Home | Current Version | Previous Version | Text Only | Print | Product List | Glossary On
Versions: 1 2 3 4 5 6 7 8 9 10 11 12 13 14 15 16 17 18 19 20 21 22 23 24 25 26 27 28 29 30 31 32 33 34 35 36 37 38 39 40 41 42 43 44 45 46 47 48 49 50
000
ASUS41 KCTP 261703
RWRCTP

REGIONAL WEATHER ROUNDUP
NATIONAL WEATHER SERVICE STATE COLLEGE PA
100 PM EDT TUE MAY 26 2015

Note: "fair" indicates few or no clouds below 12,000 feet with no
significant weather and/or obstructions to visibility.

* = STATION THAT DOES NOT REPORT PRECIPITATION /E.G. RAIN...SNOW...ETC/
    THUNDER OR FOG.

PAZ002>004-007>009-013>016-020>023-029>032-261800-
WESTERN PENNSYLVANIA

CITY           SKY/WX    TMP DP  RH WIND       PRES   REMARKS
ERIE           PTSUNNY   78  63  59 W7        30.10F
MEADVILLE      CLOUDY    75  62  64 SW9G20    30.16R
FRANKLIN*      CLOUDY    75  61  60 SW13G18   30.19S
NEW CASTLE     PTSUNNY   76  67  73 S10       30.18S
BEAVER COUNTY  CLOUDY    72  64  78 S7        30.19S
BUTLER*        CLOUDY    73  63  68 SW10G16   30.22R
PITTSBURGH INT LGT RAIN  73  64  73 S8        30.19F
PITTSBURGH     LGT RAIN  72  62  71 S14       30.21S
INDIANA*       MOSUNNY   72  66  83 SW10      30.26R
LATROBE        CLOUDY    75  64  69 SW12G23   30.24S
WASHINGTON CO* CLOUDY    70  64  83 S6        30.23F
$$

PAZ004>006-010>012-017>019-024>028-033>037-041-042-045-046-049>053-261800-
CENTRAL PENNSYLVANIA

CITY           SKY/WX    TMP DP  RH WIND       PRES   REMARKS
BRADFORD       PTSUNNY   72  63  73 S8        30.20F
DUBOIS         CLOUDY    74  63  68 S7        30.22R
CLEARFIELD     LGT RAIN  72  63  73 S9        30.23R
JOHNSTOWN      CLOUDY    68  60  75 S8        30.26S
ALTOONA        CLOUDY    76  60  57 W8        30.24S
STATE COLLEGE  MOSUNNY   79  63  57 SW10      30.20F
WILLIAMSPORT   PTSUNNY   80  63  55 VRB5      30.17F
SELINSGROVE    MOSUNNY   84  63  49 SE7       30.19S
FT INDIANTOWN  MOSUNNY   81  63  54 S8        30.19F
CAPITAL CITY   MOSUNNY   82  62  50 S7        30.19F
HARRISBURG     PTSUNNY   83  63  50 SE5       30.18F
YORK           MOSUNNY   82  63  52 VRB5      30.20F
$$

PAZ038>040-043-044-047-048-054-055-060>062-067>071-261800-
EASTERN PENNSYLVANIA

CITY           SKY/WX    TMP DP  RH WIND       PRES   REMARKS
SCRANTON       PTSUNNY   83  60  45 SW6       30.19S
MOUNT POCONO   MOSUNNY   81  58  45 W9        30.23F
ALLENTOWN      SUNNY     85  62  46 S10       30.19F
QUAKERTOWN*    SUNNY     82  63  51 SW5       30.21F
READING        SUNNY     85  60  42 S6        30.18F
LANCASTER      SUNNY     84  62  47 VRB6      30.20F
COATESVILLE    MOSUNNY   81  64  57 S5        30.23S
POTTSTOWN      SUNNY     84  61  45 SW10G16   30.21F
BLUE BELL      SUNNY     86  63  45 W7        30.20F
DOYLESTOWN     SUNNY     83  59  44 SW10G17   30.20F
WILLOW GROVE   NOT AVBL
NORTH PHILA    SUNNY     86  59  39 SW14G21   30.21F
PHILADELPHIA   MOSUNNY   84  62  47 SW15G21   30.21F
$$


USA.gov is the U.S. government's official web portal to all federal, state and local government web resources and services.